This is the latest recevied weather packets stored in our database for station/object KB7STN. If no packets are shown the sender has not sent any weather packets the latest 1 day(s).
| Time | Temp. | Humidity | Pressure | Rain* | Wind** | Luminosity | Snow |
|---|---|---|---|---|---|---|---|
| 1836274818 | 19.44° C | 38% | 1005.8 hPa | 0 mm | 0 m/s | - | - |
| 1836274518 | 19.44° C | 39% | 1005.8 hPa | 0 mm | 0 m/s | - | - |
| 1836274368 | 19.44° C | 42% | 1005.8 hPa | 0 mm | 0 m/s | - | - |
| 1836274218 | 19.44° C | 40% | 1005.7 hPa | 0 mm | 0 m/s | - | - |
| 1836273918 | 19.44° C | 38% | 1005.8 hPa | 0 mm | 0 m/s | - | - |
| 1778051236 | 8.89° C | 73% | 1004.2 hPa | 0 mm | 1.34 m/s, 275° | - | - |
| 1778050936 | 9.44° C | 73% | 1004.1 hPa | 0 mm | 1.34 m/s, 275° | - | - |
| 1778050636 | 9.44° C | 72% | 1004.2 hPa | 0 mm | 1.34 m/s, 275° | - | - |
| 1778050336 | 9.44° C | 70% | 1004.2 hPa | 0 mm | 0.89 m/s, 273° | - | - |
| 1778050036 | 9.44° C | 69% | 1004.4 hPa | 0 mm | 1.79 m/s, 274° | - | - |
| 1778049736 | 10° C | 67% | 1004.3 hPa | 0 mm | 1.79 m/s, 273° | - | - |
| 1778049436 | 10° C | 67% | 1004.1 hPa | 0 mm | 1.79 m/s, 274° | - | - |
| 1778049136 | 10° C | 65% | 1004.1 hPa | 0 mm | 1.34 m/s, 275° | - | - |
| 1778048836 | 10° C | 64% | 1004 hPa | 0 mm | 1.79 m/s, 275° | - | - |
| 1778048536 | 10.56° C | 63% | 1003.7 hPa | 0 mm | 1.79 m/s, 273° | - | - |
| 1778048236 | 10.56° C | 62% | 1003.7 hPa | 0 mm | 1.34 m/s, 281° | - | - |
| 1778047936 | 10.56° C | 62% | 1003.7 hPa | 0 mm | 0.89 m/s, 289° | - | - |
| 1778047636 | 10.56° C | 62% | 1003.6 hPa | 0 mm | 0.45 m/s, 292° | - | - |
| 1778047336 | 10.56° C | 62% | 1003.6 hPa | 0 mm | 0 m/s | - | - |
| 1778047036 | 10.56° C | 62% | 1003.6 hPa | 0 mm | 0 m/s | - | - |
| 1778046736 | 10.56° C | 61% | 1003.7 hPa | 0 mm | 0 m/s | - | - |
| 1778046436 | 10.56° C | 61% | 1003.7 hPa | 0 mm | 0.45 m/s, 292° | - | - |
| 1778046136 | 10° C | 62% | 1003.7 hPa | 0 mm | 0.45 m/s, 292° | - | - |
| 1778045836 | 10° C | 63% | 1003.4 hPa | 0 mm | 0 m/s | - | - |
| 1778045536 | 10° C | 63% | 1003.2 hPa | 0 mm | 0 m/s | - | - |
* Rain latest hour (hover to see other rain measurements)
** Current wind speed in m/s (hover to see current wind gust speed)